COSMOS 339

Satellite information

Favourite Embed

Satellite Type and Status

PAYLOADIN ORBIT

Key statistics

Satellite COSMOS 339 at a glance.

Uptime

20226

Days in orbit

Revolutions

≈ 12.5

Per day

Orbit

LEO

Low Earth Orbit

Inclination

74.0

Latest

Satellite identification and parameters

Extended collection of information and parameters for COSMOS 339.

Object identification

Identified? True

Debris? False

Object name: COSMOS 339

International designator: 1970-036D

Object number (NORAD): 4386

Object ID (CCSDS): 4386

Country: COMMONWEALTH OF INDEPENDENT STATES (CIS)

Current information (Y/N): Y

RCS size: MEDIUM

Orbital parameters

Period: 115.028 minutes

Inclination: 74.0298 deg

SMA: 7834.821 km

Apoapsis: 1468.984 km

Periapsis: 1444.388 km

RAAN: 156.4022 deg

Eccentricy: 0.00156964

Argument of periapsis: 220.0065 deg

Mean anomaly: 293.898 deg

Mean motion: 12.51869808 rev/day

Mean motion (dot): 0.00000007 rev/day2

B* drag term: 0.00014650393 1/REarth

Two-line elements (TLE)

Creation date: Sept. 8, 2025, 9:49 a.m.

Reference frame: TEME

Reference center: EARTH

Epoch: Sept. 8, 2025, 4:59 a.m. UTC

TLE line 0: 0 COSMOS 339

TLE line 1: 1 04386U 70036D 25251.20770126 .00000007 00000-0 14650-3 0 9993

TLE line 2: 2 04386 74.0298 156.4022 0015696 220.0065 293.8980 12.51869808530112

Live tracking on map

Real-time ground track for satellite COSMOS 339.

In-orbit conjunctions

There are no conjunctions computed for COSMOS 339, at the moment. Check back to stay up to date, as we update our databases every day.

Go to all conjunctions

Associated space launch

Military communications satellites

COSMOS 339 was lifted into orbit during the mission ‘Kosmos-3M | Strela-1M 1-8’, on board a Kosmos-3M space rocket.

The launch took place on April 25, 1970, 5:09 p.m. from 132/2.

For more information about the launch, click the button.

Launch to space Kosmos-3M | Strela-1M 1-8
Kosmos-3M | Strela-1M 1-8

Agency: N/A

Status: Launch Successful

Launch date: April 25, 1970, 5:09 p.m. UTC

Rocket: Kosmos-3M

Launch pad: 132/2

Location: Plesetsk Cosmodrome, Russian Federation

...

Latest news about this satellite

There are no fresh news available about this satellite. Check back as we update our databases every day.


Newsletter sign-up

Weekly statistics, charts and insights to help you stay on top of the space industry.